User: anonymous   Login
Location: Churchill Northern Studies Centre
(58.7378°N, 93.8201°W)
Time: 00:00:32
(UTC-05:00)
Language:

Vanguard 2 Rocket - Orbit

View from above orbital plane
View from above orbital plane
View from above satellite
View from above satellite

Ground track
Ground track

The orbit data is extracted from the following two-line orbital elements,

1 00012U 59001B   17293.81909071  .00000081  00000-0  49459-4 0  9999
2 00012  32.8971 146.6089 1665796  13.3062 350.6446 11.44138306411357
Epoch (UTC): 20 October 2017 19:39:29
Eccentricity: 0.1665796
inclination: 32.8971°
perigee height: 555 km
apogee height: 3327 km
right ascension of ascending node: 146.6089°
argument of perigee: 13.3062°
revolutions per day: 11.44138306
mean anomaly at epoch: 350.6446°
orbit number at epoch: 41135

The dashed part of the orbit path shows where the satellite is in the earth's shadow,  

DLR